Location: LDNL
(36.4545°S, 141.6685°E)
Time: 10:46:41
(UTC+10:00)

Tiros 1 despin weight - Pass Details

Date: 15 August 2022
Orbit: 590 x 639 km, 48.2° (Epoch: 23 September)

Event Time Altitude Azimuth Distance (km) Brightness Sun altitude
Rises 01:56:12 0° 250° (WSW) 2,927 - -61.7°
Reaches altitude 10° 01:59:05 10° 233° (SW) 2,030 - -61.3°
Maximum altitude 02:02:30 20° 185° (S) 1,499 - -60.8°
Drops below altitude 10° 02:05:58 10° 138° (SE) 2,048 - -60.3°
Sets 02:08:54 0° 121° (ESE) 2,962 - -59.9°
